Location: Pella
(41.4080°N, 92.9160°W)
Time: 17:09:48
(UTC-05:00)

ASTRO E2 - Visible Passes

Search period start: 06 July 2015 00:00
Search period end: 16 July 2015 00:00
Orbit: 523 x 530 km, 31.4° (Epoch: 05 July)

Date Brightness Start Highest point End Pass type
(mag) Time Alt. Az. Time Alt. Az. Time Alt. Az.
06 Jul 5.0 03:33:54 13° SE 03:33:54 13° SE 03:34:32 10° SE visible
06 Jul 4.7 05:09:49 10° SW 05:11:39 13° SSW 05:13:26 10° S visible
07 Jul 4.7 04:56:09 10° SW 04:57:23 11° SSW 04:58:36 10° S visible
12 Jul 4.8 22:29:01 10° SSW 22:29:54 13° SSW 22:29:54 13° SSW visible
13 Jul 4.4 22:14:34 10° SSW 22:16:54 17° S 22:16:54 17° S visible
14 Jul 4.2 22:00:10 10° SW 22:02:59 18° S 22:03:41 18° SSE visible
15 Jul 4.3 21:45:47 10° SW 21:48:42 19° S 21:50:19 15° SE visible
